Location: Unspecified
(51.3762°N, 0.0000°E)
Time: 04:50:25
(UTC+00:00)

nSIGHT-1 - Pass Details

Date: 03 September 2019
Orbit: 341 x 348 km, 51.6° (Epoch: 22 September)

Event Time Altitude Azimuth Distance (km) Brightness Sun altitude
Exits shadow 02:44:24 21° 108° (ESE) 841 ? -21.2°
Drops below altitude 10° 02:45:31 10° 106° (ESE) 1,292 ? -21.0°
Sets 02:47:31 0° 105° (ESE) 2,132 ? -20.8°
